{"data":{"norad_id":67601,"intl_designator":"2026-018N","name":"STARLINK-36635","alt_names":[],"object_type":"PAYLOAD","status":"ACTIVE","operator":null,"country":"US","launch_date":"2026-01-29","launch_site_code":"AFWTR","launch_vehicle":null,"mission":null,"orbit_class":"UNKNOWN","rcs_meters":null,"size_class":null,"mass_kg":null,"dimensions":null,"purposes":["comms"],"wikipedia_slug":null,"has_3d_model":false,"image_url":null,"decayed_at":null,"tle_current":{"epoch":"2026-09-19T22:02:32.341632Z","epoch_age_seconds":119403,"freshness":"FRESH","line1":"1 67601U 26018N   26262.91842988  .00014940  00000+0  46403-3 0  9991","line2":"2 67601  97.2851 326.4229 0000390 156.3795 203.7466 15.33456679 37108","mean_motion":15.33456679,"eccentricity":3.9e-5,"inclination_deg":97.2851,"raan_deg":326.4229,"arg_perigee_deg":156.3795,"mean_anomaly_deg":203.7466,"bstar":0.00046403,"rev_number":3710,"period_min":93.905489455304,"perigee_km":465.24152403993,"apogee_km":465.77532838317,"semimajor_km":6843.6454262115,"source":"CELESTRAK","updated_at":"2026-09-20T09:00:43.604771Z"}}}